Location: *
(26.0026°N, 50.5122°E)
Time: 00:35:24
(UTC+00:00)

Daily predictions for brighter satellites

Satellite Brightness Start Highest point End
(mag) Time Altitude Azimuth Time Altitude Azimuth Time Altitude Azimuth
H-2A R/B 4.3 00:22:57 59° W 00:25:32 84° N 07:32:36 10° SE
ATLAS 3B CENTAUR R/B 4.4 00:22:51 12° SSE 00:25:33 17° SE 00:30:25 10° E
Atlas Centaur 2 2.5 00:29:02 79° S 00:29:14 80° SSE 00:35:29 10° ENE
USA 229 DEB 3.8 00:28:51 75° WNW 00:29:24 78° WSW 00:37:17 10° SSE
USA 229 3.8 00:28:50 73° WNW 00:29:31 79° WSW 00:37:25 10° SSE
Cosmos 2366 rocket 4.1 00:26:39 10° N 00:33:00 73° E 00:39:19 10° S
NOSS 3-3 (A) 4.3 00:34:47 34° S 00:36:52 54° ESE 00:42:32 10° NE
NOSS 3-3 (C) 4.3 00:34:44 33° S 00:36:56 53° ESE 00:42:36 10° NE
METEOR-M 4.2 00:32:15 10° NNE 00:37:36 74° ESE 00:39:23 43° S
Cosmos 1241 Rocket 4.4 00:39:46 48° SSW 00:41:46 86° ESE 00:48:14 10° NNE
SEDSat Delta rocket 4.0 00:45:17 42° NNE 00:45:17 42° NNE 00:49:14 10° ENE
GPS 2-17 Rocket1 4.3 00:47:12 32° SSE 00:47:12 32° SSE 00:51:16 10° ESE
ASC 2 Rocket 3.5 00:51:46 56° S 00:51:46 56° S 00:56:59 10° ESE
NOSS 3-1 (A) 4.3 00:49:59 45° WNW 00:52:04 54° WSW 01:00:52 10° S
Nadezhda 3 Rocket 4.1 00:50:02 10° S 00:56:08 72° E 01:02:15 10° N
PSLV R/B 4.4 00:54:21 10° N 00:57:06 38° N 00:57:06 38° N
Okean 1 Rocket 4.3 01:02:32 29° SSW 01:02:32 29° SSW 01:04:50 10° S
SL-16 R/B 2.1 01:01:01 55° W 01:01:34 58° WSW 01:07:05 10° S
Mugunghwa Rocket 4.4 01:01:25 42° W 01:04:30 89° N 01:13:01 10° E
Cosmos 304 Rocket 4.1 01:00:12 12° N 01:04:38 65° ENE 01:09:23 10° SSE
Meteor 1-16 Rocket 4.1 01:06:38 10° N 01:12:00 79° E 01:17:16 10° S
Cosmos 2322 Rocket 2.1 01:09:40 26° NNW 01:12:48 64° WSW 01:18:24 10° S
SL-8 Rocket 4.4 01:14:46 35° W 01:14:46 35° W 01:19:52 10° SSW
ASTRO E2 3.1 01:14:52 43° NNW 01:15:05 44° N 01:18:52 10° ENE
Cosmos 2219 Rocket 4.3 01:12:42 10° N 01:17:21 26° ENE 01:22:00 10° ESE
Cosmos 1821 Rocket 4.1 01:11:15 10° N 01:17:24 73° E 01:23:27 10° S
SL-08 R/B 4.5 01:12:49 10° N 01:19:18 87° W 01:25:43 10° S
Cosmos 1867 3.7 01:13:55 10° SSW 01:19:19 78° ESE 01:24:46 10° NNE
Lacrosse 5 2.1 01:16:51 20° NNW 01:20:24 69° NE 01:25:25 10° SE
BREEZE-M DEB (TANK) 3.6 01:20:34 35° NW 01:20:56 36° NNW 01:27:22 10° NE
GOES 2 Rocket 2.9 01:20:09 44° WNW 01:21:20 69° N 01:25:30 10° E
Cosmos 2360 Rocket 2.2 01:15:53 10° NNW 01:21:35 84° ENE 01:27:14 10° SSE
Delta 2 Rocket 4.1 01:18:52 31° W 01:22:30 78° SSW 01:28:47 10° ESE
Cosmos 923 Rocket 4.2 01:21:48 16° SW 01:25:39 45° WNW 01:30:37 10° N
Cosmos 1680 Rocket 3.4 01:21:56 10° SSW 01:27:05 63° WNW 01:32:17 10° N
FUSE 4.2 01:24:53 31° WSW 01:27:15 58° SSW 01:32:30 10° ESE
YAOGAN 6 3.0 01:24:05 10° NNE 01:27:38 62° E 01:31:11 10° S
Cosmos 1025 Rocket 2.9 01:25:05 10° SSW 01:29:22 66° W 01:33:39 10° N
Cosmos 332 Rocket 3.7 01:25:06 10° NNW 01:29:48 63° WSW 01:34:31 10° S
SJ-12 4.0 01:26:03 10° NNE 01:30:06 79° ESE 01:34:10 10° S
Cosmos 2333 Rocket 3.2 01:27:32 10° N 01:33:05 47° ENE 01:38:36 10° SE
OAO 2 Rocket 3.8 01:31:21 22° NW 01:34:21 51° NNE 01:39:12 10° E
Envisat 3.1 01:30:19 10° NNE 01:35:24 78° ESE 01:40:28 10° S
CZ-4C R/B 3.5 01:28:17 10° NNW 01:36:15 71° ENE 01:44:57 10° SE
Cosmos 1908 3.7 01:36:59 21° NW 01:38:56 34° W 01:42:23 10° SSW
Meteor 2-5 Rocket 3.7 01:34:47 10° S 01:40:18 88° E 01:45:52 10° N
SL-24 R/B - RUBIN 2 3.5 01:36:38 10° NNW 01:41:01 84° ENE 01:45:18 10° SSE
Cosmos 220 Rocket 3.9 01:37:10 10° NNW 01:41:20 62° WSW 01:45:28 10° S
USA 234 4.0 01:39:53 10° NNE 01:45:27 31° NW 01:49:49 15° W
Cosmos 1536 Rocket 3.6 01:44:51 10° S 01:49:15 84° E 01:53:38 10° N
COSMO-SKYMED 1 3.4 01:47:57 10° SSE 01:52:10 54° ENE 01:56:24 10° N
Cosmos 1441 Rocket 4.2 01:49:38 10° SW 01:52:41 24° W 01:55:44 10° NNW
Cosmos 2322 4.1 01:49:08 10° NNW 01:54:46 66° ENE 02:00:21 10° SSE
Milstar 3 3.8 01:46:58 10° SW 01:55:40 48° SSE 02:02:01 10° E
Cosmos 2112 Rocket 4.5 01:51:14 10° SW 01:56:00 37° WNW 02:00:50 10° N
Cosmos 1953 3.3 01:54:18 10° NW 01:57:33 24° W 02:00:47 10° SW
H-2A R/B 3.0 01:55:50 10° N 01:59:20 40° WNW 02:02:49 10° SSW
Skynet4D Del rocket 4.3 01:53:52 15° W 01:59:56 87° S 02:07:53 10° ESE
Meteor 1-31 Rocket 2.9 01:57:54 10° N 02:01:32 47° WNW 02:05:10 10° SSW
Cosmos 1455 Rocket 3.6 01:59:01 10° NNW 02:03:04 36° W 02:07:06 10° SSW
BREEZE-M R/B 3.9 02:03:00 12° NW 02:03:24 12° NW 02:04:34 10° NNW
CZ-4B R/B 4.1 02:00:15 10° N 02:03:49 42° WNW 02:07:31 10° SSW
Cosmos 1339 Rocket 4.5 01:58:17 10° SSW 02:04:27 66° W 02:10:34 10° N
Cosmos 1300 2.6 02:01:01 10° NNW 02:04:45 63° W 02:08:30 10° S
Meteor 1-24 Rocket 3.6 02:00:16 10° SSW 02:05:30 63° W 02:10:51 10° N
Meteor 2-10 Rocket 4.0 02:01:38 10° N 02:06:35 62° E 02:11:33 10° SSE
ATLAS 2A CENTAUR R/B 3.4 02:08:25 10° WSW 02:11:35 25° S 02:19:11 10° SE
GEOS 3 Rocket 3.8 02:07:03 10° NNE 02:11:56 48° NW 02:16:47 10° SW
DNEPR-1 R/B 4.0 02:07:46 10° SSW 02:13:11 83° ESE 02:17:46 10° NNE
Cosmos 1544 Rocket 3.8 02:13:30 10° NNW 02:17:41 47° W 02:21:49 10° SSW
Atlas Centaur 2 2.5 02:12:00 10° W 02:18:45 60° N 02:24:01 10° ENE
Elektron 1 4.0 02:16:43 10° NW 02:19:46 47° WSW 02:22:39 10° SSE
